Wind_Speed
27 27 26 25 25 24 24 24 24 24 23 23 23 23 23 23 24 24 24 24 24 24 24 25 25 25 25 24 25 25 25 25 26 26 26 26 27 28 28 29 29 29 29
29 28 28 27 27 27 26 25 25 26 25 25 25 25 25 25 26 26 26 26 26 26 27 27 27 26 26 26 26 26 27 27 28 28 28 28 29 29 30 30 30 31 31
31 30 30 30 29 29 28 27 27 27 27 27 27 27 27 28 28 28 28 28 28 28 29 29 28 28 28 28 28 28 29 29 29 29 30 30 30 31 31 31 32 32 32
33 32 32 32 31 31 30 30 30 30 29 29 29 29 29 30 30 30 30 30 30 30 30 30 30 30 30 30 31 30 30 31 31 31 31 32 32 32 33 33 33 33 33
34 34 34 34 33 33 33 33 32 32 32 31 31 31 32 32 33 33 33 32 32 32 32 32 32 32 32 32 33 33 32 32 32 32 33 34 34 35 35 35 35 35 36
36 36 36 35 35 35 35 35 35 34 34 33 34 34 34 34 35 35 35 35 34 34 33 33 34 34 34 34 35 35 34 34 34 35 35 35 36 36 37 37 37 37 37
39 38 38 38 38 38 38 37 37 36 36 36 35 35 36 36 36 36 36 36 36 35 35 35 35 35 36 36 36 36 36 36 36 36 37 37 38 38 37 37 37 37 37
41 41 41 40 40 40 40 39 39 39 39 38 38 38 38 38 37 37 36 36 37 37 37 37 37 37 37 37 37 37 37 37 37 38 38 39 38 38 38 38 37 38 38
43 43 43 42 42 42 42 41 41 41 41 41 40 40 39 39 38 38 37 38 38 38 38 38 38 38 38 38 38 39 39 38 39 39 39 39 39 38 38 38 38 38 38
45 45 45 45 44 44 44 44 44 43 43 43 43 43 42 41 40 39 39 40 40 39 40 40 40 40 39 39 39 39 39 40 40 40 40 39 39 39 39 40 39 39 39
46 47 47 47 46 46 46 46 46 45 45 45 44 44 43 42 42 42 41 40 40 40 40 41 42 42 42 41 40 41 41 41 41 41 41 40 40 40 40 39 39 40 40
47 48 48 49 48 47 48 48 48 48 47 46 45 45 44 43 43 42 42 42 42 41 41 42 43 42 43 43 42 42 42 43 42 42 42 41 40 40 40 41 41 41 42
47 48 49 50 50 50 49 48 47 47 47 47 46 46 46 46 45 45 44 43 43 43 43 43 43 44 45 45 44 44 44 44 43 43 42 41 41 41 41 41 42 43 43
46 46 47 49 49 48 49 49 48 48 47 47 47 48 48 47 46 46 46 45 45 44 44 44 45 46 46 46 45 45 45 44 43 43 43 43 42 41 42 43 43 44 45
48 48 48 48 48 49 49 50 50 50 49 49 49 49 48 47 47 47 47 47 47 47 45 45 46 47 47 47 48 47 46 45 44 44 44 43 43 43 43 44 45 46 47
48 49 49 49 50 50 50 51 51 51 50 50 49 49 49 49 48 48 48 49 49 48 47 46 47 47 48 48 48 47 46 44 44 44 44 45 45 45 45 46 47 48 48
48 48 48 49 50 51 52 52 51 51 51 51 51 51 51 50 50 50 49 50 50 49 49 48 48 48 49 49 47 46 46 45 45 46 46 46 46 46 46 47 47 48 49
50 50 49 49 50 50 51 51 51 52 52 52 52 52 52 52 52 51 51 51 51 50 50 49 49 49 49 48 48 47 46 46 46 47 47 47 47 47 48 48 49 50 50
48 49 49 50 50 51 52 52 52 52 53 53 53 53 53 53 53 53 53 52 52 52 53 52 50 49 48 47 47 47 47 47 47 47 48 48 48 47 48 49 49 50 50
48 49 49 49 49 50 51 51 52 53 53 53 53 52 52 52 52 52 52 52 52 53 54 54 52 50 48 47 47 48 48 48 48 49 49 48 48 48 49 50 50 50 48
48 48 48 48 49 50 50 51 51 51 51 51 51 51 52 52 52 52 52 52 52 52 52 53 52 50 48 47 48 48 48 49 49 49 49 49 49 49 49 50 50 49 48
46 47 47 46 46 47 48 48 49 49 50 50 51 52 51 52 52 52 52 51 52 52 51 51 50 49 49 48 48 49 49 49 48 48 49 49 49 49 49 49 49 48 47
45 45 45 45 45 46 46 45 46 47 47 48 48 49 49 49 49 50 50 51 52 52 51 50 50 49 49 48 48 48 48 48 47 47 47 48 48 48 47 48 48 46 45
42 43 43 44 45 45 46 46 46 47 47 48 47 47 47 47 49 50 49 50 50 50 49 50 50 49 49 49 48 47 47 47 47 47 48 47 47 47 46 46 46 45 45
42 42 43 44 44 44 44 44 45 46 46 46 46 45 46 47 48 49 49 49 48 47 48 49 49 49 48 48 47 47 47 47 47 47 47 46 46 46 45 45 45 45 45
41 41 42 43 43 43 44 45 45 45 45 46 46 46 46 46 47 47 47 47 47 46 46 46 47 47 47 47 48 48 47 47 46 46 46 46 46 45 44 44 44 44 45
Wind_Direction
257 259 260 261 262 264 266 269 271 275 278 279 281 284 287 288 289 291 294 295 296 297 298 299 300 301 302 302 302 302 302 303 305 305 304 304 304 304 304 304 304 303 302
258 259 261 262 263 264 265 268 272 275 277 280 282 284 285 286 288 289 291 293 294 295 296 297 298 298 299 300 300 300 301 302 303 303 303 303 303 303 304 304 304 303 301
259 260 261 262 263 264 265 267 271 274 277 279 282 284 285 286 287 289 290 292 293 293 294 296 296 297 297 298 298 298 299 300 301 301 302 302 302 303 303 303 303 303 301
259 261 261 262 262 264 266 269 272 274 276 279 281 283 284 286 287 288 289 290 291 291 292 293 294 294 295 296 296 297 298 298 299 299 300 300 301 301 301 301 301 302 301
259 261 262 262 262 264 266 268 270 273 276 278 280 282 284 285 287 288 288 289 289 289 289 290 291 292 293 294 294 295 296 296 296 297 298 299 299 300 300 300 300 300 300
260 261 262 262 263 264 266 267 269 272 275 278 280 282 284 285 286 287 287 288 288 288 288 289 290 290 291 292 293 293 294 295 295 296 297 298 298 299 299 299 299 299 299
259 260 262 262 264 266 267 268 270 272 274 276 279 281 283 284 285 286 286 286 287 287 287 287 289 289 290 292 292 292 293 294 294 295 296 297 298 298 299 299 299 299 299
259 260 261 263 264 265 267 269 270 271 273 276 278 280 281 283 283 284 285 286 285 285 285 285 286 288 289 290 291 291 293 294 294 295 296 296 297 297 297 297 298 298 297
259 260 261 262 263 265 267 269 270 271 273 274 277 279 281 282 283 283 283 285 285 285 284 284 285 287 288 289 290 292 293 294 295 296 296 296 297 297 297 297 297 297 297
260 260 261 262 264 265 267 268 270 271 273 274 275 277 279 280 281 282 282 283 284 285 284 283 284 285 286 288 290 291 292 293 295 295 295 296 296 296 296 296 297 297 297
260 261 261 262 263 265 267 268 270 271 272 273 275 276 278 279 280 281 282 282 282 283 283 282 283 284 285 287 289 290 291 293 294 294 294 294 295 294 295 295 295 296 296
260 261 261 262 262 264 266 269 270 270 272 273 274 275 276 277 279 279 280 281 282 283 283 283 283 283 285 286 287 289 290 292 293 293 293 293 293 293 294 294 295 295 296
261 261 261 262 263 264 266 268 269 271 272 272 273 274 275 276 278 279 280 280 281 282 283 283 283 284 285 285 287 288 290 291 292 292 293 293 293 293 293 294 295 296 297
262 262 262 262 264 265 267 268 270 271 272 273 274 274 275 277 278 279 279 280 281 281 282 282 283 284 285 286 287 287 288 290 291 291 291 292 292 293 293 294 295 296 297
263 263 263 264 266 266 268 271 271 272 272 273 274 274 275 276 276 276 278 280 282 282 281 282 283 284 285 285 286 286 286 289 289 290 290 291 291 292 293 294 295 296 297
265 265 264 265 266 267 268 269 271 272 273 272 273 274 275 275 276 276 278 280 282 282 282 282 283 284 285 284 285 284 284 285 287 288 288 289 291 292 293 293 295 296 297
265 266 266 266 267 268 269 270 271 272 273 274 275 276 276 277 276 277 279 279 280 281 282 283 284 284 284 283 283 283 283 283 284 286 288 289 290 291 292 293 294 296 297
267 267 268 268 268 269 270 270 271 272 273 274 275 276 277 277 277 277 277 279 280 280 282 282 283 284 283 281 282 282 282 283 284 285 287 288 288 290 291 292 294 295 296
268 268 268 269 269 270 271 272 272 272 273 275 276 276 277 277 277 277 277 278 279 279 280 281 281 281 280 279 279 280 280 281 283 284 285 287 288 289 291 292 294 295 297
269 269 268 270 271 271 272 273 274 274 274 276 276 276 277 277 277 278 278 278 279 280 280 280 279 279 278 277 278 278 278 280 281 282 284 286 287 289 291 292 294 295 296
269 269 269 270 271 271 272 274 275 275 275 275 276 276 277 276 278 278 279 280 281 281 281 280 280 278 277 277 277 278 278 280 282 282 283 285 287 289 291 292 293 295 294
270 269 270 270 271 272 272 273 274 275 275 276 276 276 277 277 277 278 280 280 280 280 280 280 279 279 279 278 278 278 279 280 282 282 284 286 287 290 291 292 292 293 293
270 270 271 271 272 274 274 274 274 276 276 276 277 277 277 277 278 279 279 279 280 280 280 279 280 280 279 279 279 279 280 281 282 284 285 287 289 290 291 292 293 293 294
271 271 273 274 274 274 274 275 276 277 278 279 279 278 279 278 279 279 280 281 280 279 278 278 278 279 279 279 280 279 279 280 283 284 285 287 289 290 291 292 293 294 294
273 274 276 276 276 276 277 277 278 278 279 279 280 280 280 279 279 279 280 280 279 278 277 277 277 279 279 279 280 280 280 281 282 283 284 285 287 289 289 289 291 293 294
275 276 278 278 278 277 277 276 278 279 280 280 281 281 281 280 280 280 280 279 279 279 279 278 278 279 279 279 279 280 280 281 283 283 284 285 286 287 287 288 290 291 294
Height
5847 5848 5849 5850 5850 5851 5852 5852 5852 5852 5852 5852 5852 5851 5851 5850 5849 5848 5847 5845 5844 5843 5841 5840 5838 5836 5834 5832 5831 5829 5827 5825 5822 5820 5818 5815 5813 5810 5808 5805 5803 5800 5798
5841 5842 5843 5844 5845 5846 5846 5847 5847 5847 5847 5847 5847 5846 5845 5845 5844 5843 5842 5841 5839 5838 5836 5835 5833 5831 5829 5827 5825 5823 5821 5819 5817 5814 5812 5809 5807 5804 5802 5799 5796 5794 5791
5835 5836 5837 5838 5839 5840 5840 5841 5841 5841 5841 5841 5841 5840 5840 5839 5838 5837 5836 5835 5834 5832 5831 5829 5827 5825 5823 5821 5819 5817 5815 5813 5811 5808 5806 5803 5800 5797 5795 5792 5789 5787 5784
5828 5829 5830 5831 5833 5833 5834 5835 5835 5836 5835 5835 5835 5834 5834 5833 5832 5831 5830 5829 5828 5826 5825 5823 5821 5819 5817 5815 5813 5811 5809 5806 5804 5801 5799 5796 5793 5790 5787 5785 5782 5779 5776
5821 5822 5823 5824 5825 5826 5827 5828 5828 5829 5829 5828 5828 5828 5827 5826 5826 5824 5823 5822 5821 5820 5818 5816 5815 5813 5810 5808 5806 5804 5802 5799 5797 5794 5792 5789 5786 5783 5780 5777 5774 5771 5767
5813 5814 5816 5817 5818 5819 5820 5820 5821 5821 5821 5821 5821 5821 5820 5819 5818 5817 5816 5815 5813 5812 5811 5809 5807 5805 5803 5801 5799 5796 5794 5792 5789 5786 5784 5781 5777 5774 5771 5768 5764 5761 5758
5804 5806 5807 5809 5810 5811 5812 5812 5813 5813 5813 5813 5813 5813 5813 5811 5810 5809 5808 5807 5806 5804 5803 5801 5800 5798 5796 5793 5791 5788 5786 5784 5781 5778 5775 5772 5768 5765 5762 5758 5755 5752 5749
5795 5797 5798 5800 5801 5802 5803 5803 5804 5804 5805 5805 5805 5804 5804 5804 5802 5801 5800 5798 5797 5796 5795 5793 5791 5789 5787 5785 5783 5780 5778 5775 5772 5769 5766 5763 5759 5756 5753 5749 5746 5743 5740
5786 5788 5789 5791 5792 5793 5794 5794 5795 5795 5796 5796 5795 5795 5794 5794 5793 5793 5791 5789 5788 5787 5785 5784 5782 5780 5778 5776 5774 5771 5769 5766 5763 5760 5757 5753 5750 5747 5743 5740 5737 5734 5730
5776 5778 5779 5780 5782 5783 5784 5785 5785 5785 5785 5785 5785 5785 5784 5783 5783 5782 5782 5780 5778 5777 5776 5774 5773 5771 5769 5767 5765 5762 5759 5756 5753 5750 5747 5744 5740 5737 5734 5731 5727 5724 5721
5765 5767 5768 5770 5772 5773 5774 5774 5774 5775 5775 5775 5775 5774 5773 5773 5772 5771 5771 5770 5769 5767 5766 5764 5762 5761 5759 5757 5755 5752 5749 5746 5743 5740 5737 5734 5730 5727 5724 5721 5718 5715 5711
5754 5755 5757 5759 5761 5762 5763 5763 5763 5764 5764 5764 5764 5763 5763 5762 5761 5761 5760 5760 5758 5757 5755 5753 5752 5750 5748 5746 5744 5741 5738 5736 5733 5730 5727 5724 5720 5717 5714 5711 5708 5705 5701
5743 5745 5746 5747 5749 5751 5752 5752 5752 5752 5752 5753 5753 5752 5752 5751 5751 5749 5748 5748 5748 5747 5745 5743 5741 5739 5737 5735 5733 5730 5728 5725 5722 5719 5716 5713 5710 5708 5705 5701 5698 5694 5691
5732 5733 5734 5736 5737 5739 5740 5741 5741 5741 5741 5741 5741 5741 5740 5740 5739 5738 5737 5736 5736 5736 5734 5732 5730 5727 5726 5724 5722 5719 5717 5714 5711 5708 5705 5703 5700 5697 5694 5691 5687 5684 5680
5720 5722 5723 5724 5725 5727 5728 5728 5729 5729 5729 5729 5729 5729 5728 5728 5727 5726 5725 5723 5723 5723 5723 5720 5718 5716 5714 5712 5710 5708 5705 5702 5699 5697 5694 5692 5689 5686 5683 5679 5676 5672 5668
5708 5710 5711 5713 5714 5715 5716 5716 5717 5717 5717 5717 5717 5716 5716 5715 5714 5713 5712 5711 5710 5709 5709 5708 5706 5704 5701 5699 5697 5695 5693 5690 5687 5685 5683 5680 5678 5675 5671 5668 5664 5661 5656
5696 5697 5699 5701 5702 5703 5704 5704 5704 5704 5704 5704 5704 5704 5703 5702 5702 5701 5699 5698 5697 5696 5695 5695 5692 5690 5688 5686 5684 5683 5681 5678 5676 5674 5671 5669 5666 5663 5660 5656 5653 5649 5645
5684 5685 5687 5688 5689 5690 5691 5691 5692 5692 5692 5691 5691 5690 5690 5689 5689 5688 5686 5685 5684 5682 5681 5681 5679 5677 5675 5673 5672 5670 5668 5666 5664 5662 5659 5657 5654 5651 5647 5644 5640 5636 5632
5672 5673 5674 5675 5677 5677 5678 5678 5679 5679 5679 5678 5678 5677 5676 5675 5675 5674 5673 5672 5670 5669 5667 5666 5665 5663 5662 5660 5659 5657 5656 5654 5652 5649 5647 5644 5641 5638 5635 5631 5627 5623 5619
5660 5661 5662 5663 5664 5664 5665 5665 5665 5665 5665 5665 5664 5664 5663 5662 5661 5660 5659 5658 5656 5655 5653 5652 5651 5649 5648 5646 5645 5644 5643 5641 5639 5637 5634 5632 5629 5625 5622 5618 5614 5610 5606
5648 5648 5650 5651 5651 5652 5652 5652 5652 5652 5652 5651 5650 5650 5649 5648 5647 5646 5645 5644 5642 5641 5639 5637 5636 5635 5634 5633 5632 5630 5629 5628 5626 5624 5622 5619 5616 5613 5609 5604 5601 5597 5593
5636 5637 5637 5638 5639 5639 5639 5639 5639 5639 5638 5638 5637 5635 5635 5634 5633 5632 5631 5630 5628 5627 5625 5624 5622 5621 5620 5619 5618 5616 5615 5615 5614 5612 5609 5607 5603 5600 5595 5592 5588 5584 5580
5624 5625 5626 5626 5626 5625 5626 5627 5626 5626 5625 5625 5624 5622 5622 5621 5619 5618 5617 5616 5614 5612 5611 5609 5608 5607 5606 5605 5604 5603 5601 5600 5599 5596 5594 5593 5589 5586 5582 5578 5574 5571 5567
5614 5614 5614 5614 5614 5614 5614 5614 5613 5613 5613 5612 5610 5609 5608 5607 5606 5605 5603 5602 5600 5598 5597 5596 5595 5593 5592 5591 5589 5589 5587 5586 5585 5582 5579 5579 5576 5573 5569 5565 5561 5558 5555
5603 5603 5603 5602 5602 5602 5601 5601 5601 5600 5599 5599 5597 5596 5595 5593 5592 5591 5590 5589 5587 5585 5583 5581 5580 5579 5578 5576 5575 5574 5573 5572 5571 5570 5566 5565 5563 5560 5557 5553 5549 5545 5542
5592 5592 5592 5591 5590 5590 5589 5588 5588 5588 5587 5586 5584 5583 5581 5580 5578 5577 5576 5574 5573 5572 5570 5569 5567 5566 5564 5563 5561 5560 5559 5558 5557 5556 5554 5552 5549 5547 5546 5543 5538 5534 5530